When you browse on this site, cookies collect data to enhance your experience and personalize the content and advertising you see.
Visit our Privacy Policy to learn more. By continuing to use the site, you agree to this use of cookies and data.

Hourly Weather Malanje

Today, 9 July, Thursday

Time Temperature Precipitation Wind Pressure Humidity
00:00 +18°C° 0 mm 1 mps 664 mmHg 33%
01:00 +18°C° 0 mm 1 mps 664 mmHg 34%
02:00 +16°C° 0 mm 1 mps 664 mmHg 36%
03:00 +15°C° 0 mm 1 mps 664 mmHg 37%
04:00 +15°C° 0 mm 1 mps 663 mmHg 38%
05:00 +15°C° 0 mm 1 mps 664 mmHg 37%
06:00 +15°C° 0 mm 1 mps 664 mmHg 36%
07:00 +15°C° 0 mm 2 mps 665 mmHg 37%
08:00 +20°C° 0 mm 2 mps 666 mmHg 31%
09:00 +25°C° 0 mm 2 mps 667 mmHg 25%
10:00 +29°C° 0 mm 2 mps 667 mmHg 19%
11:00 +31°C° 0 mm 2 mps 667 mmHg 18%
12:00 +34°C° 0 mm 2 mps 667 mmHg 17%
13:00 +36°C° 0 mm 2 mps 667 mmHg 17%
14:00 +35°C° 0 mm 2 mps 666 mmHg 18%
15:00 +35°C° 0 mm 2 mps 665 mmHg 18%
16:00 +34°C° 0 mm 2 mps 665 mmHg 19%
17:00 +30°C° 0 mm 2 mps 665 mmHg 24%
18:00 +27°C° 0 mm 2 mps 664 mmHg 28%
19:00 +24°C° 0 mm 2 mps 664 mmHg 33%
20:00 +23°C° 0 mm 2 mps 664 mmHg 40%
21:00 +21°C° 0 mm 2 mps 665 mmHg 46%
22:00 +19°C° 0 mm 2 mps 665 mmHg 52%
23:00 +19°C° 0 mm 2 mps 665 mmHg 59%

Tomorrow, 10 July, Friday

Time Temperature Precipitation Wind Pressure Humidity
00:00 +18°C° 0 mm 2 mps 665 mmHg 66%
01:00 +17°C° 0 mm 3 mps 665 mmHg 73%
02:00 +16°C° 0 mm 2 mps 664 mmHg 79%
03:00 +15°C° 0 mm 2 mps 664 mmHg 85%
04:00 +15°C° 0 mm 1 mps 664 mmHg 91%
05:00 +15°C° 0 mm 1 mps 664 mmHg 87%
06:00 +16°C° 0 mm 1 mps 665 mmHg 83%
07:00 +16°C° 0 mm 1 mps 665 mmHg 78%
08:00 +21°C° 0 mm 1 mps 666 mmHg 61%
09:00 +26°C° 0 mm 1 mps 667 mmHg 43%
10:00 +30°C° 0 mm 2 mps 668 mmHg 26%
11:00 +33°C° 0 mm 1 mps 668 mmHg 22%
12:00 +36°C° 0 mm 1 mps 668 mmHg 18%
13:00 +38°C° 0 mm 0 mps 668 mmHg 15%
14:00 +36°C° 0 mm 0 mps 667 mmHg 15%
15:00 +35°C° 0 mm 0 mps 666 mmHg 15%
16:00 +34°C° 0 mm 0 mps 665 mmHg 16%
17:00 +32°C° 0 mm 1 mps 665 mmHg 22%
18:00 +28°C° 0 mm 1 mps 665 mmHg 28%
19:00 +25°C° 0 mm 2 mps 664 mmHg 34%
20:00 +23°C° 0 mm 2 mps 664 mmHg 43%
21:00 +21°C° 0 mm 2 mps 664 mmHg 52%
22:00 +19°C° 0 mm 2 mps 665 mmHg 60%
23:00 +18°C° 0 mm 2 mps 664 mmHg 66%

Day after tomorrow, 11 July, Saturday

Time Temperature Precipitation Wind Pressure Humidity
00:00 +17°C° 0 mm 2 mps 664 mmHg 72%
01:00 +17°C° 0 mm 2 mps 664 mmHg 78%
02:00 +16°C° 0 mm 1 mps 664 mmHg 82%
03:00 +15°C° 0 mm 1 mps 663 mmHg 87%
04:00 +14°C° 0 mm 1 mps 663 mmHg 91%
05:00 +15°C° 0 mm 1 mps 664 mmHg 88%
06:00 +15°C° 0 mm 1 mps 664 mmHg 84%
07:00 +16°C° 0 mm 1 mps 665 mmHg 81%
08:00 +21°C° 0 mm 1 mps 666 mmHg 62%
09:00 +26°C° 0 mm 2 mps 667 mmHg 44%
10:00 +30°C° 0 mm 2 mps 668 mmHg 25%
11:00 +32°C° 0 mm 2 mps 668 mmHg 22%
12:00 +35°C° 0 mm 2 mps 667 mmHg 19%
13:00 +37°C° 0 mm 2 mps 667 mmHg 15%
14:00 +37°C° 0 mm 2 mps 666 mmHg 15%
15:00 +36°C° 0 mm 2 mps 666 mmHg 15%
16:00 +36°C° 0 mm 2 mps 665 mmHg 15%
17:00 +32°C° 0 mm 2 mps 665 mmHg 20%
18:00 +29°C° 0 mm 1 mps 665 mmHg 25%
19:00 +25°C° 0 mm 1 mps 664 mmHg 29%
20:00 +23°C° 0 mm 1 mps 664 mmHg 42%
21:00 +20°C° 0 mm 2 mps 664 mmHg 54%
22:00 +19°C° 0 mm 2 mps 664 mmHg 66%
23:00 +18°C° 0 mm 2 mps 664 mmHg 69%

12 July, Sunday

Time Temperature Precipitation Wind Pressure Humidity
00:00 +17°C° 0 mm 2 mps 664 mmHg 72%
01:00 +16°C° 0 mm 1 mps 664 mmHg 75%
02:00 +16°C° 0 mm 1 mps 664 mmHg 79%
03:00 +15°C° 0 mm 1 mps 664 mmHg 82%
04:00 +14°C° 0 mm 1 mps 663 mmHg 86%
05:00 +15°C° 0 mm 1 mps 664 mmHg 84%
06:00 +15°C° 0 mm 1 mps 665 mmHg 83%
07:00 +14°C° 0 mm 0 mps 665 mmHg 81%
08:00 +20°C° 0 mm 1 mps 666 mmHg 63%
09:00 +25°C° 0 mm 2 mps 667 mmHg 45%
10:00 +29°C° 0 mm 3 mps 668 mmHg 27%
11:00 +31°C° 0 mm 3 mps 667 mmHg 23%
12:00 +34°C° 0 mm 3 mps 667 mmHg 19%
13:00 +36°C° 0 mm 3 mps 666 mmHg 15%
14:00 +35°C° 0 mm 3 mps 666 mmHg 15%
15:00 +35°C° 0 mm 3 mps 665 mmHg 15%
16:00 +35°C° 0 mm 3 mps 665 mmHg 15%
17:00 +31°C° 0 mm 2 mps 664 mmHg 19%
18:00 +28°C° 0 mm 1 mps 664 mmHg 23%
19:00 +22°C° 0 mm 0 mps 664 mmHg 27%
20:00 +23°C° 0 mm 1 mps 664 mmHg 37%
21:00 +22°C° 0 mm 1 mps 664 mmHg 46%
22:00 +19°C° 0 mm 2 mps 664 mmHg 56%
23:00 +18°C° 0 mm 2 mps 664 mmHg 66%

13 July, Monday

Time Temperature Precipitation Wind Pressure Humidity
00:00 +16°C° 0 mm 2 mps 664 mmHg 76%
01:00 +15°C° 0 mm 2 mps 664 mmHg 86%
02:00 +15°C° 0 mm 2 mps 663 mmHg 89%
03:00 +14°C° 0 mm 2 mps 663 mmHg 93%
04:00 +14°C° 0 mm 2 mps 663 mmHg 96%
05:00 +14°C° 0 mm 1 mps 664 mmHg 94%
06:00 +15°C° 0 mm 1 mps 664 mmHg 92%
07:00 +15°C° 0 mm 1 mps 665 mmHg 90%
08:00 +20°C° 0 mm 1 mps 666 mmHg 70%
09:00 +24°C° 0 mm 1 mps 666 mmHg 51%
10:00 +28°C° 0 mm 2 mps 667 mmHg 31%
11:00 +30°C° 0 mm 2 mps 667 mmHg 26%
12:00 +32°C° 0 mm 2 mps 666 mmHg 22%
13:00 +35°C° 0 mm 2 mps 666 mmHg 17%
14:00 +35°C° 0 mm 2 mps 665 mmHg 16%
15:00 +36°C° 0 mm 2 mps 665 mmHg 16%
16:00 +35°C° 0 mm 1 mps 664 mmHg 15%
17:00 +31°C° 0 mm 1 mps 664 mmHg 19%
18:00 +26°C° 0 mm 0 mps 664 mmHg 24%
19:00 +23°C° 0 mm 0 mps 663 mmHg 28%
20:00 +23°C° 0 mm 1 mps 664 mmHg 40%
21:00 +21°C° 0 mm 1 mps 664 mmHg 53%
22:00 +19°C° 0 mm 2 mps 664 mmHg 66%
23:00 +18°C° 0 mm 2 mps 664 mmHg 74%

14 July, Tuesday

Time Temperature Precipitation Wind Pressure Humidity
00:00 +16°C° 0 mm 2 mps 663 mmHg 82%
01:00 +15°C° 0 mm 2 mps 663 mmHg 90%
02:00 +15°C° 0 mm 2 mps 663 mmHg 92%
03:00 +15°C° 0 mm 2 mps 663 mmHg 94%
04:00 +15°C° 0 mm 2 mps 664 mmHg 96%
05:00 +15°C° 0 mm 2 mps 664 mmHg 94%
06:00 +15°C° 0 mm 2 mps 664 mmHg 92%
07:00 +16°C° 0 mm 1 mps 665 mmHg 89%
08:00 +20°C° 0 mm 1 mps 666 mmHg 69%
09:00 +24°C° 0 mm 2 mps 667 mmHg 50%
10:00 +28°C° 0 mm 2 mps 667 mmHg 30%
11:00 +30°C° 0 mm 2 mps 667 mmHg 25%
12:00 +32°C° 0 mm 2 mps 667 mmHg 19%
13:00 +35°C° 0 mm 3 mps 666 mmHg 14%
14:00 +35°C° 0 mm 3 mps 666 mmHg 14%
15:00 +35°C° 0 mm 3 mps 665 mmHg 14%
16:00 +35°C° 0 mm 2 mps 664 mmHg 14%
17:00 +31°C° 0 mm 2 mps 664 mmHg 18%
18:00 +28°C° 0 mm 1 mps 664 mmHg 22%
19:00 +24°C° 0 mm 1 mps 664 mmHg 26%
20:00 +23°C° 0 mm 1 mps 664 mmHg 33%
21:00 +22°C° 0 mm 1 mps 664 mmHg 40%
22:00 +19°C° 0 mm 2 mps 664 mmHg 48%
23:00 +19°C° 0 mm 1 mps 664 mmHg 60%
Show more